Regional Weather Roundup
Issued by NWS

Home | Current Version | Previous Version | Text Only | Print | Product List | Glossary Off
Versions: 1 2 3 4 5 6 7 8 9 10 11 12 13 14 15 16 17 18 19 20 21 22 23 24 25 26 27 28 29 30 31 32 33 34 35 36 37 38 39 40 41 42 43 44 45 46 47 48 49 50

000
ASUS45 KCYS 030210
RWRWY

WYOMING REGIONAL WEATHER ROUNDUP
NATIONAL WEATHER SERVICE CHEYENNE WY
800 PM MDT SAT MAY 02 2015

NOTE:  "FAIR" INDICATES FEW OR NO CLOUDS BELOW 12,000 FEET
WITH NO SIGNIFICANT WEATHER AND/OR OBSTRUCTIONS TO VISIBILITY.

WYZ001-030300-
YELLOWSTONE NATIONAL PARK

CITY           SKY/WX    TMP DP  RH WIND       PRES   REMARKS
LK YELLOWSTONE   N/A     49  27  42 NW3       29.96S
W YELLOWSTONE  NOT AVBL

$$
WYZ002>013-054>058-071-098>099-030300-
NORTHERN WYOMING

CITY           SKY/WX    TMP DP  RH WIND       PRES   REMARKS
JACKSON        PTCLDY    61  30  31 S21G30    29.88S
CODY           CLOUDY    64  25  22 SW21G32   29.82R
GREYBULL       FAIR      73  17  12 CALM      29.70S
WORLAND        FAIR      64  30  27 SE8       29.71S
SHERIDAN       FAIR      57  38  48 NW7       29.76S
BUFFALO        FAIR      63  31  30 NW9       29.81R
GILLETTE       FAIR      60  31  33 CALM      29.76F
HULETT         FAIR      68  21  17 CALM      29.78S
NEWCASTLE      FAIR      64  28  25 N5        29.77F

$$
WYZ014>020-022>026-101>103-030300-
CENTRAL WYOMING

CITY           SKY/WX    TMP DP  RH WIND       PRES   REMARKS
BIG PINEY      FAIR      53  32  44 NW14G45   30.01R
PINEDALE       FAIR      54  32  43 W21G30    29.99R
DUBOIS         FAIR      54  27  35 W13       29.92F
LANDER         FAIR      66  26  22 W12       29.84R
RIVERTON       FAIR      66  25  21 W15       29.84R
CASPER         MOCLDY    62  35  36 SW16G25   29.84R
DOUGLAS        MOCLDY    64  35  34 W3        29.84R

$$
WYZ021-027>030-104>119-030300-
SOUTHERN WYOMING

CITY           SKY/WX    TMP DP  RH WIND       PRES   REMARKS
EVANSTON       FAIR      59  25  27 NW10      29.98R
KEMMERER       FAIR      52  32  46 NW17G24   30.01R
FORT BRIDGER   MOCLDY    64  25  22 W17G24    30.00R
ROCK SPRINGS   MOCLDY    53  36  52 N12G17    30.00R
DIXON          FAIR      53  41  63 E10       30.03F
RAWLINS        FAIR      58  27  30 W13       29.96S
SARATOGA       MOCLDY    54  34  47 S16       30.00F
LARAMIE        FAIR      51  36  56 W23G30    30.02R
CHEYENNE       FAIR      57  37  47 W21G29    29.94F
TORRINGTON     FAIR      70  37  29 W16       29.79R
PINE BLUFFS    FAIR      57  41  54 SW15      29.91R

$$


USA.gov is the U.S. government's official web portal to all federal, state and local government web resources and services.